This demonstration page uses our WeatherBlox Daily Observations layout. Learn more.

Left ArrowRight Arrow

41.55636, -103.73856

Hourly Observations for July 1, 2018

Temp ( °F °C ) Dew Point ( °F °C ) Humidity (%) Winds ( mph kmh ) Pressure ( in mb ) Visibility ( mi km ) Precip ( " mm )
12:58 am 00:58 Clear 49 9.4 45 7.1 86 86 NNW 10 17 30.04 1017 10 16 N/A
1:58 am 01:58 Clear 47 8.6 44 6.6 87 87 NNW 9 15 30.04 1017 10 16 N/A
2:58 am 02:58 Clear 45 7.1 43 6.1 93 93 NNW 9 15 30.05 1018 10 16 N/A
3:58 am 03:58 Clear 46 7.6 42 5.6 87 87 WSW 5 7 30.12 1020 10 16 N/A
4:58 am 04:58 Clear 44 6.8 42 5.4 91 91 W 8 13 30.09 1019 10 16 N/A
5:58 am 05:58 Sunny 44 6.6 41 5.2 91 91 SW 5 7 30.10 1019 10 16 N/A
6:58 am 06:58 Sunny 49 9.4 46 7.7 89 89 W 6 9 30.09 1019 10 16 N/A
7:58 am 07:58 Sunny 56 13.6 47 8.5 72 72 WSW 8 13 30.06 1018 10 16 N/A
8:58 am 08:58 Sunny 62 16.6 47 8.3 58 58 WSW 13 20 30.04 1017 10 16 N/A
9:58 am 09:58 Sunny 64 17.7 50 9.8 60 60 WSW 14 22 30.04 1017 10 16 N/A
10:59 am 10:59 Sunny 69 20.4 48 8.9 48 48 WSW 13 20 30.01 1016 10 16 N/A
11:58 am 11:58 Sunny 71 21.5 47 8.6 44 44 W 9 15 29.99 1016 10 16 N/A
12:58 pm 12:58 Sunny 73 23 49 9.4 42 42 W 13 20 29.98 1015 10 16 N/A
1:58 pm 13:58 Sunny 76 24.5 48 8.9 37 37 W 10 17 29.95 1014 10 16 N/A
3:58 pm 15:58 Mostly Sunny 80 26.5 41 4.9 25 25 W 9 15 29.94 1014 10 16 N/A
5:58 pm 17:58 Sunny 80 26.7 43 6.1 27 27 SSW 9 15 29.91 1013 10 16 N/A
7:58 pm 19:58 Sunny 71 21.5 52 11.2 52 52 SSE 6 9 29.91 1013 10 16 N/A
8:58 pm 20:58 Clear 68 20 48 9 49 49 S 6 9 29.92 1013 10 16 N/A
9:58 pm 21:58 Clear 64 17.9 51 10.4 62 62 SSW 6 9 29.94 1014 10 16 N/A
10:58 pm 22:58 Clear 63 17 53 11.5 70 70 SSW 8 13 29.93 1014 10 16 N/A
11:58 pm 23:58 Clear 62 16.6 52 10.9 69 69 SW 9 15 29.93 1014 10 16 N/A

Powered by AerisWeather